#timestamp,LO_Frequency,Hit,StdDev 
1649404815.2,286047001.3,N
1649404835.0,286047002.3,N
1649404835.9,286047002.3,N
1649404855.8,286047001.7,N
1649404875.6,286047002.8,N
1649404895.4,286047000.6,N
1649404915.3,286047000.1,N
1649404935.1,286047000.6,N
1649404955.9,286046999.7,N
1649404975.7,286047004.3,Y
1649404995.5,286046999.9,P
1649405015.4,286047002.3,P
1649405035.2,286047002.7,N
1649405055.0,286046999.7,N
1649405055.9,286046999.7,N
1649405075.8,286047004.4,Y
1649405095.6,286047002.7,P
1649405115.5,286047002.2,N
1649405135.3,286047000.1,N
1649405155.1,286047000.6,N
1649405175.9,286047001.1,N
1649405195.7,286047001.1,N
1649405215.5,286047000.0,N
1649405235.4,286046999.8,N
1649405255.2,286047000.2,N
1649405275.1,286047000.3,N
1649405276.0,286047000.3,N
1649405295.8,286047002.4,N
1649405315.6,286047002.0,N
1649405335.5,286047002.3,N
1649405355.3,286047001.9,N
1649405375.2,286047002.1,N
1649405395.9,286047002.4,N
1649405415.7,286047002.5,N
1649405435.6,286047000.4,N
1649405455.4,286047000.0,N
1649405475.3,286047000.6,N
1649405495.1,286046999.7,N
1649405496.0,286046999.7,N
1649405515.8,286047000.2,N
1649405535.7,286047002.5,N
1649405555.5,286047000.2,N
1649405575.3,286047001.6,N
1649405595.2,286047000.7,N
1649405615.0,286047002.6,N
1649405615.9,286047002.6,N
1649405635.8,286047001.2,N
1649405655.6,286047000.5,N
1649405675.4,286047002.2,N
1649405695.3,286047004.2,Y
1649405715.1,286047002.8,P
1649405735.8,286047000.0,N
1649405755.7,286047002.7,N
1649405775.5,286047000.4,N
1649405795.4,286047000.6,N
1649405815.2,286046998.5,N
1649405835.0,286046998.9,N
1649405835.9,286046998.9,N
1649405855.8,286047000.7,N
1649405875.6,286047000.6,N
1649405895.4,286047000.3,N
1649405915.3,286047002.8,N
1649405935.1,286047002.8,N
1649405955.9,286047002.5,N
1649405975.7,286047001.7,N
1649405995.5,286047001.8,N
1649406015.4,286047002.1,N
1649406035.2,286047001.9,N
1649406055.0,286047001.5,N
1649406055.9,286047001.5,N
1649406075.8,286047002.5,N
1649406095.6,286046998.5,N
1649406115.5,286046999.7,N
1649406135.3,286046996.8,N
1649406155.1,286046999.1,N
1649406175.9,286046996.7,N
1649406195.7,286047000.3,N
1649406215.5,286047001.9,N
1649406235.4,286047002.1,N
1649406255.2,286047002.7,N
1649406275.0,286047002.1,N
1649406276.0,286047002.1,N
1649406295.8,286047002.4,N
1649406315.6,286047002.0,N
1649406335.5,286047002.3,N
1649406355.3,286047002.3,N
1649406375.1,286047002.3,N
1649406395.9,286047003.9,N
1649406415.7,286047003.7,N
1649406435.5,286047004.0,N
1649406455.4,286047002.0,N
1649406475.2,286047000.4,N
1649406495.1,286047000.1,N
1649406496.0,286047000.1,N
1649406515.8,286047002.0,N
1649406535.7,286047003.7,N
1649406555.5,286047001.4,N
1649406575.3,286047002.5,N
1649406595.2,286047002.8,N
1649406615.0,286047000.6,N
1649406615.9,286047000.6,N
1649406635.8,286047001.0,N
1649406655.6,286046999.8,N
1649406675.4,286046997.0,N
1649406695.3,286046998.6,N
1649406715.1,286046999.5,N
1649406735.8,286046999.9,N
1649406755.7,286047002.4,N
1649406775.5,286046999.7,N
1649406795.4,286047000.6,N
1649406815.2,286047000.3,N
1649406835.0,286047001.8,N
1649406835.9,286047001.8,N
1649406855.8,286047004.1,N
1649406875.6,286047004.2,N
1649406895.5,286047001.8,N
1649406915.3,286047003.7,N
1649406935.1,286047001.7,N
1649406955.9,286047003.8,N
1649406975.7,286047003.2,N
1649406995.5,286047003.0,N
1649407015.4,286047003.1,N
1649407035.2,286047005.0,N
1649407055.1,286047004.8,N
1649407056.0,286047004.8,N
1649407075.8,286047005.3,N
1649407095.6,286047005.8,N
1649407115.5,286047005.8,N
1649407135.3,286047005.5,N
1649407155.1,286047003.8,N
1649407175.9,286047004.4,N
1649407195.7,286047004.1,N
1649407215.6,286047001.4,N
1649407235.4,286047003.0,N
1649407255.2,286047003.5,N
1649407275.1,286047003.0,N
1649407276.0,286047003.0,N
1649407295.8,286047005.6,Y
1649407315.7,286047002.0,P
1649407335.5,286047000.2,N
1649407355.3,286047000.7,N
1649407375.2,286047000.8,N
1649407395.9,286047001.3,N
1649407415.7,286047004.3,Y
1649407435.6,286047001.7,P
1649407455.4,286047002.7,P
1649407475.3,286047002.1,P
1649407495.1,286047000.1,N
1649407496.0,286047000.1,N
1649407515.8,286047000.3,N
1649407535.7,286047000.4,N
1649407555.5,286047002.3,N
1649407575.3,286047000.4,N
1649407595.2,286047000.6,N
1649407615.0,286047001.0,N
1649407615.9,286047001.0,N
1649407635.8,286047001.1,N
1649407655.6,286047000.9,N
1649407675.4,286047000.8,N
1649407695.3,286046999.2,N
1649407715.1,286046999.5,N
1649407735.9,286046998.4,N
1649407755.7,286047001.2,N
1649407775.5,286047000.4,N
1649407795.4,286047000.8,N
1649407815.2,286047000.7,N
1649407835.0,286047000.2,N
1649407835.9,286047000.2,N
1649407855.8,286047002.3,N
1649407875.6,286046999.8,N
1649407895.5,286046998.2,N
1649407915.3,286046998.3,N
1649407935.1,286047000.2,N
1649407955.9,286047000.7,N
1649407975.7,286047000.9,N
1649407995.5,286047000.4,N
1649408015.4,286047001.0,N
1649408035.2,286047000.9,N
1649408055.1,286046999.8,N
1649408056.0,286046999.8,N
1649408075.8,286047002.7,N
1649408095.6,286047000.7,N
1649408115.5,286047000.1,N
1649408135.3,286047002.8,N
1649408155.1,286047002.5,N
1649408175.9,286047001.1,N
1649408195.7,286046996.7,N
1649408215.6,286046998.3,N
1649408235.4,286046998.5,N
1649408255.2,286046999.6,N
1649408275.1,286047001.1,N
1649408276.0,286047001.1,N
1649408295.8,286046998.2,N
1649408315.6,286046999.0,N
1649408335.5,286046998.7,N
1649408355.3,286046998.4,N
1649408375.2,286046998.1,N
1649408395.9,286047001.2,N
